METAR AND TAF INFORMATION
METAR FOR SAOC
ADDS - METARS form results

(0616 UTC 24 April 2019)
Data provider http://aviationweather.gov/metar/data/
 
METAR text: SAOC 240600Z 00000KT CAVOK 12/10 Q1021
Conditions at: SAOC (RIO CUARTO AIRPO, AR) observed 0600 UTC 24 April 2019
Temperature: 12.0°C (54°F)
Dewpoint: 10.0°C (50°F) [RH = 88%]
Pressure (altimeter): 30.15 inches Hg (1021.0 mb)
Winds: calm
Visibility: 6 or more miles (10+ km)
Ceiling: ceiling and visibility are OK
Clouds: unknown
Weather: no significant weather observed at this time

 AIRPORT MAP

 RUNWAY INFORMATION
Runway 18 Runway length 6808 ft Runway width 131 ft
Runway elevation 0 ft Runway displaced threshold 0 ft Runway heading 0
Runway 36 Runway length 6808 ft Runway width 131 ft
Runway elevation 0 ft Runway displaced threshold 0 ft Runway heading 0
Runway 5 Runway length 7431 ft Runway width 148 ft
Runway elevation 1381 ft Runway displaced threshold 0 ft Runway heading 178
Runway 23 Runway length 7431 ft Runway width 148 ft
Runway elevation 1381 ft Runway displaced threshold 0 ft Runway heading 358

 AIRPORT FREQUENCIES
Type APP Name APP/TWR Frequency 118.75 MHZ

 AIRPORT NEAR NAVIGATION AIDS
Type VOR Name Rio Cuarto Frequency 114200 KHZ